Starlink 4732

operational
NORAD ID: 53870 Int'l Des: 2022-114 Owner: SPXS Country: US Constellation: starlink
LEOCIRCULAR

About Starlink 4732

Description loading...

Live Position

Loading 3D Globe...

Upcoming Passes

Altitude History

Altitude vs Time

uPlot chart will show altitude changes over time

Two-Line Element Set

1 53870U 22114BE 25351.22324738 .00000731 00000-0 64003-4 0 9998
2 53870 53.2178 274.2606 0001388 89.3690 270.7461 15.08841486180947
Epoch: Dec 17, 2025 • Age: 9 hours

Current Status

Altitude 541.1 km
Velocity 7.60 km/s
Sub-Earth Point 31.86°N, 129.9°E
Launch Date Sep 19, 2022
Age 3.2 years
Type internet

Technical Details

Classification Payload
Mass 305.00 kg
Dry Mass 290.00 kg
Total Mass 305.00 kg
Length 0.20 m
Diameter 2.80 m
Span 9.00 m
Shape Box + pan
Manufacturer SPXS
Bus Type Starlink
Phase Status In Orbit
Owner/State SPXS/US

Large Constellations

Loading constellations...